This is the latest recevied weather packets stored in our database for station/object N2RDT. If no packets are shown the sender has not sent any weather packets the latest 10 day(s).
| Time | Temp. | Humidity | Pressure | Rain* | Wind** | Luminosity | Snow |
|---|---|---|---|---|---|---|---|
| 1777721742 | 11.11° C | 89% | 1012.8 hPa | 0.51 mm | - | 20 W/m² | - |
| 1777721441 | 11.11° C | 89% | 1013 hPa | 0.51 mm | - | 17 W/m² | - |
| 1777721138 | 11.11° C | 88% | 1012.9 hPa | 0 mm | - | 14 W/m² | - |
| 1777720836 | 11.11° C | 88% | 1012.9 hPa | 0.51 mm | - | 12 W/m² | - |
| 1777720533 | 11.11° C | 88% | 1012.8 hPa | 0.51 mm | - | 11 W/m² | - |
| 1777720230 | 11.11° C | 87% | 1013 hPa | 0.51 mm | - | 9 W/m² | - |
| 1777719927 | 11.67° C | 86% | 1012.9 hPa | 0.51 mm | - | 8 W/m² | - |
| 1777719625 | 11.67° C | 85% | 1013 hPa | 0.51 mm | - | 7 W/m² | - |
| 1777719322 | 11.67° C | 84% | 1013.1 hPa | 0.51 mm | - | 6 W/m² | - |
| 1777719020 | 11.67° C | 83% | 1013.1 hPa | 0 mm | - | 5 W/m² | - |
| 1777718717 | 12.22° C | 81% | 1012.9 hPa | 0 mm | - | 4 W/m² | - |
| 1777718414 | 12.22° C | 81% | 1013 hPa | 0 mm | - | 3 W/m² | - |
| 1777718112 | 12.22° C | 80% | 1013 hPa | 0 mm | - | 2 W/m² | - |
| 1777717810 | 12.22° C | 80% | 1013 hPa | 0 mm | - | 1 W/m² | - |
| 1777717506 | 12.22° C | 82% | 1012.9 hPa | 0 mm | - | 0 W/m² | - |
| 1777717203 | 12.22° C | 82% | 1012.8 hPa | 0 mm | - | 0 W/m² | - |
| 1777716900 | 12.22° C | 82% | 1012.9 hPa | 0 mm | - | 0 W/m² | - |
| 1777716599 | 11.67° C | 85% | 1012.9 hPa | 0 mm | - | 0 W/m² | - |
| 1777716297 | 11.67° C | 86% | 1012.8 hPa | 0 mm | - | 0 W/m² | - |
| 1777715995 | 11.67° C | 87% | 1013.1 hPa | 0 mm | - | 0 W/m² | - |
| 1777715692 | 11.67° C | 88% | 1012.9 hPa | 0 mm | - | 0 W/m² | - |
| 1777715390 | 11.67° C | 88% | 1012.9 hPa | 0 mm | - | 0 W/m² | - |
| 1777715087 | 11.67° C | 89% | 1013 hPa | 0 mm | - | 0 W/m² | - |
| 1777714785 | 11.11° C | 89% | 1012.9 hPa | 0 mm | - | 0 W/m² | - |
| 1777714483 | 11.11° C | 90% | 1013 hPa | 0 mm | - | 0 W/m² | - |
* Rain latest hour (hover to see other rain measurements)
** Current wind speed in m/s (hover to see current wind gust speed)